To NAV CANADA Home Page Login to a new session Search on AWWS site Disclaimer Vers la page française équivalente Tips FAQ What's new on the site To the Forecasts and Observations / NOTAM section To "File a Flight Plan" website Publications and other links Update of the User's profile FIC Telephone Numbers My Weather Data Folder Route Weather Data Regional Weather Data Local Weather Data To the Forecasts and Observations / NOTAM section
Request Generated 12/01/2020 at 09:20:20 UTC . Weather information available at that time is displayed.

METAR/TAF

TORONTO/BUTTONVILLE MUNICIPAL/ON    

LWIS CYKZ 010900Z AUTO 34015G21KT M02/M03 A2946=
LWIS CYKZ 010800Z AUTO 34014G22KT M01/M03 A2946=
LWIS CYKZ 010700Z AUTO 34016G21KT M01/M02 A2946=

CYKZ - No TAF is issued for this station

Your time UTC time
Weather data provided by Environment Canada and NAV CANADA